Torna al catalogo

QIANFAN-23

AttivoComunicazioniPO
NORAD 61556·PAYLOAD·🇨🇳 China

Lanciato Oct 15, 2024 da Taiyuan Satellite Launch Center

Loading…

Prossimi Passaggi (prossime 24 ore)

TLE

AggiornatoSource: Space-Track

Epoca: Sep 14, 2026, 13:36 UTC

1 61556U 24185E   26257.56691858  .00000318  00000-0  15263-3 0  9995
2 61556  88.9842  46.0192 0008902 135.9784 224.2115 14.16550711108795

Traccia QIANFAN-23 in tempo reale con AllMySat

Download on the App Store